Tracking 30995 objects as of 6-Jul-2025
HD Live streaming from Space Station
objects crossing your sky now

DELTA 1 R/B

Track DELTA 1 R/B now!
10-day predictions


NORAD ID: 3036
Int'l Code: 1967-114B
Perigee: 1,416.6 km
Apogee: 1,492.2 km
Inclination: 102.0 °
Period: 114.8 minutes
Semi major axis: 7825 km
RCS: 0.589 m2 (medium)
Launch date: November 10, 1967
Source: United States (US)
Launch site: AIR FORCE WESTERN TEST RANGE (AFWTR)

Note: This is a ROCKET BODY
Your satellite tracking list
ONEWEB-0088
Track 1 satellite(s)




NASA's NSSDC Master Catalog

Two Line Element Set (TLE):
1 03036U 67114B   25187.25983060 -.00000057  00000-0 -69041-4 0  9995
2 03036 102.0151 278.9583 0048355  79.2476 347.5510 12.54132398638983
Source of the keplerian elements: AFSPC